CW2274 Weather Reports


Display with metric or nautical units.
time (UTC)temp
F
wind
direction
speed
MPH
gust
MPH
rain 1hr
in
rain 24hr
in
rain mn
in
humidity
%
barometer
mb
20260903193515 89 106 4.0 8.0 0.00 0.00 0.00 47 1015.9
20260903193031 89 102 4.0 8.0 0.00 0.00 0.00 46 1015.9
20260903192527 91 148 3.0 8.0 0.00 0.00 0.00 46 1016.0
20260903192023 90 96 3.0 7.0 0.00 0.00 0.00 46 1016.1
20260903191523 89 88 3.0 7.0 0.00 0.00 0.00 46 1016.2
20260903191019 90 71 1.0 4.0 0.00 0.00 0.00 46 1016.3
20260903190515 91 256 2.0 4.0 0.00 0.00 0.00 45 1016.3
20260903190042 91 256 2.0 4.0 0.00 0.00 0.00 47 1016.4
20260903185524 90 233 1.0 5.0 0.00 0.00 0.00 47 1016.5
20260903185020 90 233 1.0 5.0 0.00 0.00 0.00 47 1016.7
20260903184516 89 233 2.0 5.0 0.00 0.00 0.00 49 1016.9
20260903184016 88 220 2.0 6.0 0.00 0.00 0.00 50 1016.8
20260903183532 88 218 4.0 9.0 0.00 0.00 0.00 49 1017.0
20260903183028 87 93 3.0 9.0 0.00 0.00 0.00 52 1017.1
20260903182524 87 106 4.0 8.0 0.00 0.00 0.00 50 1017.2
20260903182020 87 116 3.0 8.0 0.00 0.00 0.00 49 1017.3
20260903181516 89 220 2.0 5.0 0.00 0.00 0.00 52 1017.4
20260903181032 86 219 2.0 5.0 0.00 0.00 0.00 52 1017.5
20260903180532 85 219 2.0 5.0 0.00 0.00 0.00 51 1017.5
20260903180039 86 219 2.0 5.0 0.00 0.00 0.00 52 1017.5
20260903175521 85 72 2.0 6.0 0.00 0.00 0.00 55 1017.7
20260903175016 85 72 3.0 8.0 0.00 0.00 0.00 55 1017.6
20260903174532 85 72 2.0 8.0 0.00 0.00 0.00 56 1017.7
20260903174028 84 69 2.0 7.0 0.00 0.00 0.00 56 1017.6
20260903173524 84 66 4.0 7.0 0.00 0.00 0.00 57 1017.7
20260903173024 85 102 3.0 6.0 0.00 0.00 0.00 56 1017.7
20260903172520 86 69 3.0 6.0 0.00 0.00 0.00 57 1017.8
20260903172016 84 113 3.0 4.0 0.00 0.00 0.00 56 1017.8
20260903171532 83 105 2.0 6.0 0.00 0.00 0.00 59 1017.7
20260903171028 83 108 3.0 6.0 0.00 0.00 0.00 60 1017.7
20260903170524 83 212 1.0 3.0 0.00 0.00 0.00 60 1017.8
20260903170033 83 145 1.0 5.0 0.00 0.00 0.00 61 1017.8
20260903165518 82 154 3.0 5.0 0.00 0.00 0.00 60 1017.7
20260903165015 82 286 2.0 4.0 0.00 0.00 0.00 59 1017.7
20260903164530 82 304 2.0 4.0 0.00 0.00 0.00 60 1017.7
20260903164026 82 295 2.0 4.0 0.00 0.00 0.00 61 1017.7
20260903163522 82 295 2.0 4.0 0.00 0.00 0.00 61 1017.7
20260903163018 82 297 2.0 4.0 0.00 0.00 0.00 64 1017.7
20260903162514 81 297 2.0 3.0 0.00 0.00 0.00 63 1017.7
20260903162014 82 298 2.0 3.0 0.00 0.00 0.00 63 1017.8
20260903161529 82 298 1.0 3.0 0.00 0.00 0.00 62 1017.9
20260903161025 82 298 1.0 5.0 0.00 0.00 0.00 62 1017.9
20260903160520 81 298 3.0 5.0 0.00 0.00 0.00 63 1017.8
20260903160047 81 298 2.0 4.0 0.00 0.00 0.00 62 1017.7
20260903155526 81 298 1.0 3.0 0.00 0.00 0.00 63 1017.7
20260903155022 81 298 1.0 3.0 0.00 0.00 0.00 62 1017.8
20260903154518 80 298 1.0 3.0 0.00 0.00 0.00 63 1017.8
20260903154018 80 298 2.0 3.0 0.00 0.00 0.00 65 1017.7
20260903153514 80 347 1.0 2.0 0.00 0.00 0.00 65 1017.7
20260903153030 80 347 1.0 2.0 0.00 0.00 0.00 65 1017.7
20260903152526 80 347 0.0 2.0 0.00 0.00 0.00 64 1017.6
20260903152022 80 347 0.0 2.0 0.00 0.00 0.00 66 1017.7
20260903151518 80 347 1.0 2.0 0.00 0.00 0.00 64 1017.8
20260903151014 79 347 1.0 3.0 0.00 0.00 0.00 66 1017.8
20260903150514 79 347 2.0 3.0 0.00 0.00 0.00 65 1017.8
20260903150042 80 347 2.0 3.0 0.00 0.00 0.00 66 1017.9
20260903145524 79 347 0.0 2.0 0.00 0.00 0.00 67 1017.7
20260903145021 79 347 1.0 4.0 0.00 0.00 0.00 67 1017.8
20260903144517 78 347 1.0 4.0 0.00 0.00 0.00 68 1017.9
20260903144014 79 347 0.0 4.0 0.00 0.00 0.00 69 1017.9
20260903143531 79 347 1.0 3.0 0.00 0.00 0.00 69 1017.8
20260903143031 78 348 1.0 3.0 0.00 0.00 0.00 69 1017.8
20260903142527 78 347 1.0 3.0 0.00 0.00 0.00 68 1017.8
20260903141526 78 347 1.0 3.0 0.00 0.00 0.00 65 1017.8
20260903141022 78 350 1.0 3.0 0.00 0.00 0.00 66 1017.8
20260903140518 77 353 1.0 4.0 0.00 0.00 0.00 66 1017.9
20260903140045 78 354 1.0 6.0 0.00 0.00 0.00 66 1017.9
20260903135526 78 360 2.0 6.0 0.00 0.00 0.00 66 1017.7
20260903135022 78 331 2.0 7.0 0.00 0.00 0.00 64 1017.7
20260903134522 79 358 3.0 7.0 0.00 0.00 0.00 64 1017.6
20260903134018 79 355 2.0 5.0 0.00 0.00 0.00 63 1017.5
20260903133514 79 354 2.0 4.0 0.00 0.00 0.00 63 1017.3
20260903133030 79 354 0.0 3.0 0.00 0.00 0.00 63 1017.2
20260903132526 79 354 1.0 3.0 0.00 0.00 0.00 61 1017.3
20260903132022 79 354 1.0 3.0 0.00 0.00 0.00 61 1017.2
20260903131518 79 354 0.0 2.0 0.00 0.00 0.00 63 1017.2
20260903131018 79 354 1.0 6.0 0.00 0.00 0.00 62 1017.0
20260903130514 79 354 2.0 10.0 0.00 0.00 0.00 61 1017.0
20260903130042 79 290 2.0 11.0 0.00 0.00 0.00 62 1016.9
20260903125524 79 272 6.0 11.0 0.00 0.00 0.00 62 1016.9
20260903125020 79 285 2.0 11.0 0.00 0.00 0.00 62 1016.9
20260903124516 79 256 7.0 11.0 0.00 0.00 0.00 64 1016.8
20260903124032 79 265 3.0 11.0 0.00 0.00 0.00 64 1016.7
20260903123532 79 277 3.0 11.0 0.00 0.00 0.00 62 1016.6
20260903123028 80 267 4.0 10.0 0.00 0.00 0.00 62 1016.7
20260903122524 79 225 2.0 4.0 0.00 0.00 0.00 64 1016.5
20260903122020 79 169 0.0 4.0 0.00 0.00 0.00 69 1016.6
20260903121516 79 169 0.0 5.0 0.00 0.00 0.00 69 1016.5
20260903121031 79 143 2.0 5.0 0.00 0.00 0.00 69 1016.6
20260903120527 79 114 3.0 4.0 0.00 0.00 0.00 70 1016.6
20260903120038 79 113 2.0 3.0 0.00 0.00 0.00 70 1016.5
20260903115520 79 113 1.0 3.0 0.00 0.00 0.00 70 1016.4
20260903115016 79 113 1.0 2.0 0.00 0.00 0.00 69 1016.4
20260903114532 79 113 1.0 1.0 0.00 0.00 0.00 69 1016.3
20260903114028 79 113 0.0 2.0 0.00 0.00 0.00 68 1016.3
20260903113524 79 113 1.0 2.0 0.00 0.00 0.00 68 1016.3
20260903113020 79 113 1.0 3.0 0.00 0.00 0.00 68 1016.3
20260903112519 79 113 2.0 3.0 0.00 0.00 0.00 68 1016.3
20260903112016 79 113 2.0 3.0 0.00 0.00 0.00 68 1016.3
20260903111531 79 114 2.0 4.0 0.00 0.00 0.00 68 1016.3
20260903111027 79 115 3.0 4.0 0.00 0.00 0.00 69 1016.3
20260903110523 79 115 2.0 4.0 0.00 0.00 0.00 69 1016.3
20260903110032 79 115 2.0 4.0 0.00 0.00 0.00 69 1016.2
20260903105513 79 117 2.0 5.0 0.00 0.00 0.00 69 1016.2
20260903105013 79 122 1.0 5.0 0.00 0.00 0.00 70 1016.3
20260903104529 79 122 3.0 5.0 0.00 0.00 0.00 69 1016.3
20260903104025 79 126 3.0 4.0 0.00 0.00 0.00 70 1016.3
20260903103521 79 127 2.0 3.0 0.00 0.00 0.00 70 1016.3
20260903103017 79 127 1.0 3.0 0.00 0.00 0.00 70 1016.4
20260903102513 79 127 2.0 4.0 0.00 0.00 0.00 69 1016.4
20260903102029 79 127 2.0 4.0 0.00 0.00 0.00 69 1016.3
20260903101524 79 127 1.0 3.0 0.00 0.00 0.00 69 1016.5
20260903101024 79 127 1.0 5.0 0.00 0.00 0.00 69 1016.4
20260903100520 79 127 2.0 5.0 0.00 0.00 0.00 69 1016.4
20260903100028 79 127 3.0 5.0 0.00 0.00 0.00 69 1016.5
20260903095530 80 127 2.0 4.0 0.00 0.00 0.00 69 1016.5
20260903095026 80 126 2.0 4.0 0.00 0.00 0.00 68 1016.5
20260903094522 80 127 2.0 4.0 0.00 0.00 0.00 68 1016.5
20260903094018 80 127 2.0 5.0 0.00 0.00 0.00 68 1016.4
20260903093518 81 126 2.0 4.0 0.00 0.00 0.00 68 1016.5
20260903093014 81 126 1.0 3.0 0.00 0.00 0.00 67 1016.5
20260903092530 81 126 1.0 3.0 0.00 0.00 0.00 66 1016.5
20260903092025 81 126 1.0 1.0 0.00 0.00 0.00 66 1016.4
20260903091520 81 126 0.0 1.0 0.00 0.00 0.00 65 1016.4
20260903091017 81 126 1.0 1.0 0.00 0.00 0.00 64 1016.4
20260903090512 81 126 0.0 0.0 0.00 0.00 0.00 65 1016.4
20260903090044 81 126 0.0 1.0 0.00 0.00 0.00 66 1016.5
20260903085526 81 126 0.0 1.0 0.00 0.00 0.00 64 1016.5
20260903085022 81 126 1.0 1.0 0.00 0.00 0.00 65 1016.5
20260903084517 81 126 0.0 1.0 0.00 0.00 0.00 64 1016.7
20260903084013 82 126 0.0 1.0 0.00 0.00 0.00 62 1016.7
20260903083529 81 126 0.0 1.0 0.00 0.00 0.00 63 1016.6
20260903083024 81 126 0.0 1.0 0.00 0.00 0.00 62 1016.6
20260903082524 81 126 0.0 1.0 0.00 0.00 0.00 62 1016.6
20260903082020 82 126 1.0 1.0 0.00 0.00 0.00 61 1016.6
20260903081515 82 126 0.0 1.0 0.00 0.00 0.00 62 1016.7
20260903081031 82 126 0.0 1.0 0.00 0.00 0.00 61 1016.6
20260903080527 82 126 1.0 1.0 0.00 0.00 0.00 61 1016.7
20260903080034 81 126 0.0 1.0 0.00 0.00 0.00 63 1016.7
20260903075515 82 126 0.0 3.0 0.00 0.00 0.00 62 1016.8
20260903075015 82 126 0.0 3.0 0.00 0.00 0.00 63 1016.7
20260903074531 82 126 1.0 2.0 0.00 0.00 0.00 61 1016.7
20260903074027 82 126 1.0 2.0 0.00 0.00 0.00 61 1016.8
20260903073522 82 126 0.0 2.0 0.00 0.00 0.00 59 1016.7
20260903073018 83 126 1.0 2.0 0.00 0.00 0.00 58 1016.8
20260903072514 82 126 0.0 1.0 0.00 0.00 0.00 60 1016.8
20260903072030 82 126 0.0 2.0 0.00 0.00 0.00 62 1016.8
20260903071526 82 126 0.0 3.0 0.00 0.00 0.00 62 1016.8
20260903071025 82 126 1.0 3.0 0.00 0.00 0.00 61 1016.7
20260903070521 82 126 1.0 2.0 0.00 0.00 0.00 61 1016.6
20260903070030 82 126 0.0 2.0 0.00 0.00 0.00 59 1016.5
20260903065531 82 126 0.0 2.0 0.00 0.00 0.00 61 1016.6
20260903065026 82 126 1.0 2.0 0.00 0.00 0.00 61 1016.5
20260903064522 82 126 0.0 2.0 0.00 0.00 0.00 61 1016.4
20260903064017 82 126 1.0 2.0 0.00 0.00 0.00 60 1016.4
20260903063517 83 126 1.0 2.0 0.00 0.00 0.00 60 1016.3
20260903063013 82 126 0.0 1.0 0.00 0.00 0.00 61 1016.4
20260903062529 82 126 0.0 1.0 0.00 0.00 0.00 61 1016.6
20260903062025 83 126 1.0 1.0 0.00 0.00 0.00 59 1016.5
20260903061520 82 126 0.0 2.0 0.00 0.00 0.00 61 1016.5
20260903061016 83 126 0.0 2.0 0.00 0.00 0.00 60 1016.6
20260903060512 83 126 1.0 2.0 0.00 0.00 0.00 59 1016.5
20260903060043 83 126 1.0 2.0 0.00 0.00 0.00 57 1016.5
20260903055525 82 126 1.0 1.0 0.00 0.00 0.00 66 1016.6
20260903055021 82 126 0.0 1.0 0.00 0.00 0.00 62 1016.5
20260903054517 82 126 0.0 1.0 0.00 0.00 0.00 61 1016.7
20260903054013 82 126 0.0 1.0 0.00 0.00 0.00 62 1016.6
20260903053528 82 126 0.0 1.0 0.00 0.00 0.00 62 1016.5
20260903053023 83 126 0.0 1.0 0.00 0.00 0.00 61 1016.5
20260903052523 83 126 0.0 2.0 0.00 0.00 0.00 62 1016.8
20260903052020 83 126 1.0 2.0 0.00 0.00 0.00 61 1016.6
20260903051515 83 126 1.0 2.0 0.00 0.00 0.00 61 1016.7
20260903051031 83 126 1.0 2.0 0.00 0.00 0.00 62 1016.6
20260903050520 83 126 2.0 2.0 0.00 0.00 0.00 63 1016.7
20260903050027 83 126 1.0 2.0 0.00 0.00 0.00 63 1016.6
20260903045529 83 126 0.0 1.0 0.00 0.00 0.00 62 1016.6
20260903045024 83 126 0.0 3.0 0.00 0.00 0.00 61 1016.6
20260903044524 83 126 1.0 3.0 0.00 0.00 0.00 61 1016.5
20260903044020 83 126 1.0 3.0 0.00 0.00 0.00 61 1016.4
20260903043515 83 125 0.0 4.0 0.00 0.00 0.00 61 1016.5
20260903043031 84 126 2.0 4.0 0.00 0.00 0.00 61 1016.4
20260903042526 84 126 2.0 4.0 0.00 0.00 0.00 60 1016.5
20260903042023 84 126 2.0 4.0 0.00 0.00 0.00 60 1016.5
20260903041519 84 126 1.0 4.0 0.00 0.00 0.00 59 1016.4
20260903041019 84 126 2.0 5.0 0.00 0.00 0.00 59 1016.4
20260903040514 85 126 3.0 6.0 0.00 0.00 0.00 58 1016.3
20260903040041 85 127 3.0 9.0 0.00 0.00 0.00 58 1016.2
20260903035523 85 124 4.0 9.0 0.00 0.00 0.00 56 1016.2
20260903035018 86 101 4.0 8.0 0.00 0.00 0.00 56 1016.1
20260903034513 86 92 3.0 5.0 0.00 0.00 0.00 55 1016.1
20260903034030 86 92 3.0 4.0 0.00 0.00 0.00 54 1016.0
20260903033529 86 91 1.0 8.0 0.00 0.00 0.00 54 1016.0
20260903033025 86 91 3.0 8.0 0.00 0.00 0.00 54 1015.9
20260903032521 86 101 3.0 8.0 0.00 0.00 0.00 54 1015.8
20260903032017 86 225 2.0 4.0 0.00 0.00 0.00 52 1015.7
20260903031513 86 225 2.0 4.0 0.00 0.00 0.00 52 1015.6
20260903031028 86 225 1.0 3.0 0.00 0.00 0.00 52 1015.6
20260903030524 86 225 1.0 3.0 0.00 0.00 0.00 52 1015.6
20260903030035 86 225 1.0 3.0 0.00 0.00 0.00 51 1015.4
20260903025516 86 225 1.0 2.0 0.00 0.00 0.00 51 1015.4
20260903025012 86 225 1.0 5.0 0.00 0.00 0.00 51 1015.2
20260903024528 86 225 2.0 6.0 0.00 0.00 0.00 51 1015.2
20260903024024 87 225 3.0 7.0 0.00 0.00 0.00 51 1015.1
20260903023520 87 231 2.0 5.0 0.00 0.00 0.00 49 1015.1
20260903023016 87 242 3.0 5.0 0.00 0.00 0.00 49 1015.1
20260903022515 87 242 3.0 5.0 0.00 0.00 0.00 48 1015.1
20260903022011 87 242 2.0 4.0 0.00 0.00 0.00 48 1015.0
20260903021527 87 242 1.0 3.0 0.00 0.00 0.00 46 1014.9
20260903021022 87 242 2.0 3.0 0.00 0.00 0.00 46 1015.0
20260903020518 87 242 1.0 6.0 0.00 0.00 0.00 46 1015.1
20260903020027 88 242 2.0 6.0 0.00 0.00 0.00 45 1015.0
20260903015528 88 239 2.0 6.0 0.00 0.00 0.00 44 1015.0
20260903015024 88 238 3.0 6.0 0.00 0.00 0.00 43 1015.2
20260903014523 88 237 3.0 7.0 0.00 0.00 0.00 43 1015.2
20260903014020 88 251 3.0 7.0 0.00 0.00 0.00 42 1015.3
20260903013516 88 250 2.0 10.0 0.00 0.00 0.00 41 1015.0
20260903013011 88 229 2.0 10.0 0.00 0.00 0.00 41 1015.0
20260903012527 89 242 4.0 8.0 0.00 0.00 0.00 40 1015.0
20260903012023 88 248 2.0 7.0 0.00 0.00 0.00 41 1014.9
20260903011520 88 249 3.0 7.0 0.00 0.00 0.00 42 1014.9
20260903011019 89 240 3.0 6.0 0.00 0.00 0.00 42 1014.9
20260903010515 89 250 4.0 6.0 0.00 0.00 0.00 43 1014.8
20260903010043 89 234 4.0 6.0 0.00 0.00 0.00 44 1014.8
20260903005524 89 217 4.0 6.0 0.00 0.00 0.00 43 1014.8
20260903005019 89 217 3.0 5.0 0.00 0.00 0.00 44 1014.8
20260903004514 89 207 3.0 8.0 0.00 0.00 0.00 44 1014.9
20260903004031 90 210 3.0 8.0 0.00 0.00 0.00 44 1014.9
20260903003531 90 208 3.0 7.0 0.00 0.00 0.00 44 1014.9
20260903003027 90 234 3.0 8.0 0.00 0.00 0.00 44 1014.9
20260903002522 90 235 2.0 4.0 0.00 0.00 0.00 44 1015.0
20260903002018 90 235 2.0 6.0 0.00 0.00 0.00 43 1015.0
20260903001514 90 237 3.0 7.0 0.00 0.00 0.00 44 1015.0
20260903001029 89 235 3.0 7.0 0.00 0.00 0.00 44 1015.1
20260903000525 89 237 4.0 7.0 0.00 0.00 0.00 45 1015.1
20260903000037 89 148 4.0 10.0 0.00 0.00 0.00 44 1015.1
20260902235518 89 135 4.0 11.0 0.00 0.00 0.00 46 1015.0
20260902235015 89 210 6.0 11.0 0.00 0.00 0.00 45 1015.2
20260902234531 90 212 3.0 9.0 0.00 0.00 0.00 45 1015.1
20260902234026 90 133 4.0 6.0 0.00 0.00 0.00 46 1015.0
20260902233522 91 206 3.0 6.0 0.00 0.00 0.00 46 1015.1
20260902233018 91 94 2.0 4.0 0.00 0.00 0.00 45 1015.1
20260902232517 91 88 2.0 7.0 0.00 0.00 0.00 44 1015.2
20260902232013 91 89 4.0 7.0 0.00 0.00 0.00 43 1015.0
20260902231529 91 250 1.0 4.0 0.00 0.00 0.00 43 1015.1
20260902231025 92 250 1.0 4.0 0.00 0.00 0.00 46 1015.2
20260902230520 91 248 2.0 4.0 0.00 0.00 0.00 46 1015.2
20260902230047 91 245 1.0 3.0 0.00 0.00 0.00 47 1015.3
20260902225528 90 244 2.0 6.0 0.00 0.00 0.00 47 1015.2
20260902225024 91 244 2.0 6.0 0.00 0.00 0.00 46 1015.4
20260902224524 91 243 3.0 4.0 0.00 0.00 0.00 44 1015.4
20260902224019 91 334 1.0 4.0 0.00 0.00 0.00 44 1015.5
20260902223515 93 334 2.0 4.0 0.00 0.00 0.00 41 1015.5
20260902223031 92 346 2.0 5.0 0.00 0.00 0.00 43 1015.5
20260902222527 92 346 1.0 5.0 0.00 0.00 0.00 44 1015.5
20260902222022 92 335 2.0 5.0 0.00 0.00 0.00 44 1015.5
20260902221518 92 319 1.0 3.0 0.00 0.00 0.00 45 1015.5
20260902221018 92 319 1.0 3.0 0.00 0.00 0.00 45 1015.7
20260902220514 92 319 1.0 3.0 0.00 0.00 0.00 40 1015.8
20260902220042 93 319 1.0 3.0 0.00 0.00 0.00 39 1015.8
20260902215523 93 319 1.0 6.0 0.00 0.00 0.00 42 1015.7
20260902215019 92 319 2.0 6.0 0.00 0.00 0.00 40 1015.9
20260902214516 92 306 2.0 4.0 0.00 0.00 0.00 41 1016.0
20260902214031 92 284 1.0 7.0 0.00 0.00 0.00 41 1016.1
20260902213531 93 284 4.0 8.0 0.00 0.00 0.00 39 1016.1
20260902213027 93 284 1.0 7.0 0.00 0.00 0.00 42 1016.0
20260902212522 93 282 1.0 7.0 0.00 0.00 0.00 41 1016.1
20260902212018 93 297 3.0 5.0 0.00 0.00 0.00 41 1015.9
20260902211513 93 322 3.0 5.0 0.00 0.00 0.00 43 1016.1
20260902211028 93 325 1.0 5.0 0.00 0.00 0.00 41 1016.3
20260902210524 92 325 2.0 6.0 0.00 0.00 0.00 41 1016.4
20260902210037 93 320 1.0 6.0 0.00 0.00 0.00 44 1016.5
20260902205518 94 314 2.0 7.0 0.00 0.00 0.00 40 1016.5
20260902205013 92 267 2.0 7.0 0.00 0.00 0.00 45 1016.4
20260902204529 93 267 4.0 8.0 0.00 0.00 0.00 43 1016.5
20260902204025 93 284 3.0 8.0 0.00 0.00 0.00 43 1016.5
20260902203521 92 294 2.0 10.0 0.00 0.00 0.00 44 1016.7
20260902203016 93 291 4.0 10.0 0.00 0.00 0.00 45 1016.9
20260902202516 92 301 1.0 8.0 0.00 0.00 0.00 44 1016.8
20260902202032 92 317 2.0 9.0 0.00 0.00 0.00 44 1016.7
20260902201527 93 15 3.0 9.0 0.00 0.00 0.00 44 1016.7
20260902201022 93 2 2.0 9.0 0.00 0.00 0.00 44 1016.7
20260902200518 95 309 2.0 9.0 0.00 0.00 0.00 42 1016.9
20260902200046 94 330 2.0 8.0 0.00 0.00 0.00 45 1016.9
20260902195022 94 1 2.0 6.0 0.00 0.00 0.00 46 1017.3
20260902194522 91 15 3.0 9.0 0.00 0.00 0.00 48 1017.3
20260902194018 91 40 4.0 9.0 0.00 0.00 0.00 47 1017.3